Wetterdaten: aktuell Sonntag, 14.08.2022 06:10
Datum Zeit Temp. A. Feuchte A. Luftdruck Regen Wind Taupunkt Windchill Windben
14.08.2022 06:10 14,3 C 84 % 1010,9 hPa 0,0 l/m 0,0 km/h (0 Bft) 11,6 C 14,3 C 0,0 km/h (0 Bft)
14.08.2022 06:00 14,3 C 83 % 1011,1 hPa 0,0 l/m 0,0 km/h (0 Bft) 11,5 C 14,3 C 0,0 km/h (0 Bft)
14.08.2022 05:50 14,4 C 82 % 1011,2 hPa 0,0 l/m 0,0 km/h (0 Bft) 11,4 C 14,4 C 0,0 km/h (0 Bft)
14.08.2022 05:41 14,6 C 82 % 1011,3 hPa 0,0 l/m 0,2 km/h (0 Bft) 11,6 C 14,6 C 3,2 km/h (1 Bft)
14.08.2022 05:30 14,7 C 82 % 1011,3 hPa 0,0 l/m 1,4 km/h (1 Bft) 11,7 C 14,7 C 3,2 km/h (1 Bft)
14.08.2022 05:20 14,8 C 82 % 1011,4 hPa 0,0 l/m 1,7 km/h (1 Bft) 11,8 C 14,8 C 3,2 km/h (1 Bft)
14.08.2022 05:10 14,8 C 82 % 1011,4 hPa 0,0 l/m 0,7 km/h (0 Bft) 11,8 C 14,8 C 3,2 km/h (1 Bft)
14.08.2022 05:00 14,9 C 81 % 1011,4 hPa 0,0 l/m 0,0 km/h (0 Bft) 11,7 C 14,9 C 0,0 km/h (0 Bft)
14.08.2022 04:50 14,9 C 81 % 1011,7 hPa 0,0 l/m 0,0 km/h (0 Bft) 11,7 C 14,9 C 0,0 km/h (0 Bft)
14.08.2022 04:40 15,1 C 80 % 1011,8 hPa 0,0 l/m 0,0 km/h (0 Bft) 11,7 C 15,1 C 0,0 km/h (0 Bft)
14.08.2022 04:30 15,1 C 80 % 1011,9 hPa 0,0 l/m 0,2 km/h (0 Bft) 11,7 C 15,1 C 1,6 km/h (1 Bft)
14.08.2022 04:20 15,2 C 80 % 1012,1 hPa 0,0 l/m 0,8 km/h (0 Bft) 11,8 C 15,2 C 3,2 km/h (1 Bft)
14.08.2022 04:10 15,3 C 79 % 1012,3 hPa 0,0 l/m 0,0 km/h (0 Bft) 11,7 C 15,3 C 0,0 km/h (0 Bft)
14.08.2022 04:00 15,4 C 78 % 1012,2 hPa 0,0 l/m 0,0 km/h (0 Bft) 11,6 C 15,4 C 0,0 km/h (0 Bft)
14.08.2022 03:50 15,5 C 78 % 1012,4 hPa 0,0 l/m 0,0 km/h (0 Bft) 11,7 C 15,5 C 0,0 km/h (0 Bft)
14.08.2022 03:40 15,6 C 78 % 1012,4 hPa 0,0 l/m 0,0 km/h (0 Bft) 11,8 C 15,6 C 0,0 km/h (0 Bft)
14.08.2022 03:30 15,8 C 77 % 1012,5 hPa 0,0 l/m 0,7 km/h (0 Bft) 11,8 C 15,8 C 3,2 km/h (1 Bft)
14.08.2022 03:20 15,9 C 77 % 1012,5 hPa 0,0 l/m 0,0 km/h (0 Bft) 11,9 C 15,9 C 0,0 km/h (0 Bft)
14.08.2022 03:10 16,0 C 76 % 1012,7 hPa 0,0 l/m 0,0 km/h (0 Bft) 11,8 C 16,0 C 0,0 km/h (0 Bft)
14.08.2022 03:00 16,2 C 76 % 1012,8 hPa 0,0 l/m 0,0 km/h (0 Bft) 12,0 C 16,2 C 0,0 km/h (0 Bft)
14.08.2022 02:50 16,3 C 76 % 1012,8 hPa 0,0 l/m 0,0 km/h (0 Bft) 12,1 C 16,3 C 0,0 km/h (0 Bft)
_ Min-Zeit 06:10 00:00 06:10 - 00:00 05:50 06:00 00:00
Minimum _ 14,2 C 67 % 1010,9 hPa - 0,0 km/h (0 Bft) 11,4 C 14,3 C 0,0 km/h (0 Bft)
_ Max-Zeit 00:00 06:10 00:00 00:00 02:20 00:10 00:00 02:11
Maximum _ 19,1 C 84 % 1013,5 hPa 0,0 l/m 1,7 km/h
N (1 Bft)
12,8 C 18,9 C 4,8 km/h
N (1 Bft)
Durchschnitt _ 16,3 C 76 % 1012,5 hPa #0,0 l/m 0,2 km/h (0 Bft) 12,0 C 16,3 C 0,8 km/h (0 Bft)